Temp
77 81 83 84 84 84 84 84 84 84 83 83 83 83 84 84 84 84 84 84 84 84 84 84 84 84 84 84 84 84 84 84 84 84 84 84 83 83 83 84 84 84 83
81 82 83 83 84 84 84 83 83 83 83 83 83 84 84 84 84 84 84 84 84 84 84 84 84 84 84 84 84 84 84 84 84 84 84 84 84 83 84 84 85 83 83
81 82 83 83 84 84 83 83 83 84 84 84 84 84 84 84 84 84 84 84 84 84 84 84 84 84 84 84 84 84 84 84 84 83 80 76 76 84 84 84 84 83 83
82 82 82 82 83 84 83 83 83 84 84 83 84 84 84 84 84 84 84 84 84 84 84 84 84 84 84 83 83 83 83 84 84 82 78 77 78 84 84 84 83 83 83
81 82 81 83 83 84 83 83 83 84 83 83 83 83 84 84 84 84 84 84 84 84 84 84 84 84 84 84 84 83 83 83 84 81 74 73 72 79 84 84 83 83 83
83 81 82 83 84 84 84 83 83 83 83 83 84 84 84 84 84 84 84 84 84 84 84 84 84 84 84 84 84 83 83 84 84 78 75 76 73 77 84 84 84 84 83
83 80 82 83 83 83 83 83 83 83 83 83 84 84 84 84 84 84 84 84 84 84 84 84 84 84 84 84 84 84 83 84 82 77 74 76 75 79 84 84 84 83 83
81 81 82 83 83 83 84 84 83 83 84 84 84 84 84 84 84 84 84 84 84 84 84 84 84 84 84 84 84 84 84 84 85 81 80 77 79 82 84 83 83 83 83
83 81 81 81 83 84 84 84 84 84 84 84 84 84 84 84 84 84 84 84 84 84 84 84 84 84 84 84 84 84 84 84 82 80 81 76 79 82 84 83 82 82 82
83 82 79 79 80 79 80 84 84 84 84 84 84 84 84 84 84 84 84 83 84 84 84 84 84 84 84 83 83 84 84 84 80 79 80 78 80 82 84 83 82 82 82
84 82 81 80 79 79 79 82 83 84 84 84 84 85 84 80 80 82 83 84 85 85 84 85 85 84 84 84 84 84 84 81 79 79 78 82 81 83 84 83 82 82 82
81 82 82 81 80 80 86 81 79 80 80 79 79 78 79 81 80 84 84 84 86 86 85 84 84 85 85 80 77 83 82 82 82 82 78 81 82 83 84 82 82 82 82
84 84 84 83 83 83 85 81 79 80 79 79 78 78 80 83 79 81 82 83 80 83 77 78 78 77 79 78 75 74 81 82 78 82 85 81 82 83 83 82 82 82 81
86 88 87 86 85 85 85 81 81 82 81 80 80 80 79 79 80 80 79 82 78 76 76 75 74 75 78 78 78 76 79 80 78 81 81 82 82 82 83 82 82 82 82
85 88 89 89 85 84 83 83 81 84 85 84 81 81 80 79 83 82 81 83 82 79 81 76 74 75 75 78 79 80 80 79 81 79 79 83 82 82 82 83 82 82 82
89 86 85 88 85 83 80 81 80 82 82 80 84 83 82 80 81 80 81 83 84 82 84 80 75 75 77 77 80 81 80 81 77 77 76 81 82 81 82 82 82 82 82
89 89 86 85 83 81 81 80 80 80 84 81 82 83 83 83 82 82 80 84 82 83 83 82 78 73 77 77 82 83 77 79 77 78 79 79 79 81 81 82 82 82 83
90 87 87 91 84 81 80 79 80 80 80 81 82 82 85 83 83 81 80 81 82 82 80 78 76 77 75 72 75 72 72 76 76 77 78 76 79 81 81 82 82 82 82
89 86 86 86 83 82 80 79 79 80 79 81 82 84 82 84 84 81 81 83 83 80 78 78 72 73 74 73 74 73 71 71 71 75 75 77 76 79 78 81 81 81 82
88 86 84 83 83 82 81 79 78 78 79 81 82 82 87 84 83 81 80 81 78 76 75 74 73 75 74 73 77 74 71 71 70 72 72 75 74 77 79 79 78 79 81
86 84 81 81 81 82 79 78 75 76 78 80 82 84 84 83 83 79 78 78 75 74 74 73 73 74 74 71 68 69 70 70 69 70 72 71 72 75 76 78 76 76 79
84 85 80 80 79 81 81 78 77 78 79 81 82 82 84 83 83 81 79 76 76 73 74 72 74 74 77 74 68 67 66 67 69 69 70 71 72 74 75 77 78 77 76
84 83 82 80 79 79 79 80 77 78 78 78 80 80 84 83 82 83 80 80 75 73 71 71 74 73 72 73 73 69 65 64 63 67 69 70 72 71 74 79 79 77 74
87 86 84 82 80 79 79 78 77 80 76 78 80 81 82 84 84 83 83 80 78 74 71 71 77 71 73 73 74 75 72 68 63 62 67 68 69 70 73 78 78 79 78
88 86 84 83 82 83 81 78 80 76 77 79 79 80 80 80 82 84 84 83 80 75 73 73 73 72 74 74 75 71 71 68 68 66 64 66 69 70 77 82 81 80 78
89 88 85 83 81 82 82 80 78 77 79 77 77 78 79 79 82 82 84 82 81 74 73 71 72 70 73 75 75 74 71 70 68 67 67 67 69 72 78 73 71 70 72
MSLP
1015.76 1015.74 1015.98 1016.12 1016.25 1016.34 1016.39 1016.46 1016.50 1016.53 1016.71 1016.90 1017.03 1017.10 1017.18 1017.22 1017.27 1017.40 1017.58 1017.70 1017.79 1017.80 1017.79 1017.86 1017.99 1018.20 1018.31 1018.34 1018.28 1018.42 1018.55 1018.47 1018.38 1018.41 1018.53 1018.70 1018.81 1018.86 1018.84 1019.05 1019.38 1019.35 1019.58
1014.90 1015.56 1015.94 1016.10 1016.27 1016.41 1016.49 1016.59 1016.70 1016.76 1016.90 1017.13 1017.27 1017.31 1017.34 1017.28 1017.32 1017.46 1017.58 1017.70 1017.74 1017.78 1017.88 1017.97 1018.15 1018.29 1018.40 1018.39 1018.27 1018.37 1018.32 1018.37 1018.51 1018.63 1018.72 1018.61 1018.70 1018.85 1018.90 1018.81 1019.21 1019.45 1019.72
1014.78 1015.39 1015.84 1016.10 1016.28 1016.48 1016.58 1016.66 1016.82 1016.88 1017.02 1017.20 1017.30 1017.36 1017.36 1017.31 1017.32 1017.44 1017.58 1017.76 1017.90 1018.04 1018.17 1018.28 1018.40 1018.48 1018.60 1018.58 1018.46 1018.54 1018.40 1018.47 1018.50 1018.49 1018.59 1018.76 1018.82 1018.78 1019.05 1018.85 1019.09 1019.45 1019.75
1014.46 1015.16 1015.62 1016.01 1016.31 1016.50 1016.63 1016.71 1016.83 1016.94 1017.14 1017.31 1017.34 1017.34 1017.33 1017.35 1017.39 1017.56 1017.79 1018.02 1018.17 1018.25 1018.36 1018.49 1018.68 1018.76 1018.76 1018.74 1018.63 1018.62 1018.57 1018.62 1018.64 1018.66 1018.58 1018.57 1018.70 1018.80 1019.12 1019.01 1018.99 1019.39 1019.67
1014.71 1015.14 1015.49 1015.85 1016.26 1016.46 1016.63 1016.75 1016.88 1017.00 1017.20 1017.32 1017.40 1017.45 1017.45 1017.49 1017.68 1017.91 1018.11 1018.25 1018.31 1018.33 1018.30 1018.43 1018.54 1018.68 1018.79 1018.83 1018.72 1018.60 1018.48 1018.77 1018.94 1019.08 1018.67 1018.47 1018.60 1018.81 1019.06 1019.07 1019.11 1019.52 1019.62
1014.56 1015.19 1015.63 1015.79 1016.09 1016.42 1016.63 1016.71 1016.88 1017.08 1017.22 1017.28 1017.41 1017.55 1017.62 1017.65 1017.74 1017.94 1018.05 1018.12 1018.15 1018.08 1018.01 1018.04 1018.12 1018.20 1018.37 1018.49 1018.52 1018.52 1018.45 1018.51 1019.10 1019.28 1019.01 1018.64 1018.67 1019.15 1018.86 1018.82 1019.02 1019.47 1019.63
1014.57 1015.18 1015.64 1015.91 1016.09 1016.30 1016.52 1016.70 1016.91 1017.09 1017.23 1017.28 1017.37 1017.49 1017.58 1017.61 1017.72 1017.76 1017.84 1017.96 1017.88 1017.81 1017.76 1017.81 1017.88 1017.94 1018.10 1018.21 1018.29 1018.26 1018.44 1018.46 1018.85 1019.38 1019.59 1019.22 1019.28 1018.96 1018.55 1018.52 1018.86 1019.12 1019.29
1014.08 1015.01 1015.50 1015.90 1016.21 1016.36 1016.43 1016.63 1016.90 1017.03 1017.10 1017.16 1017.26 1017.33 1017.41 1017.53 1017.57 1017.57 1017.75 1017.84 1017.84 1017.75 1017.64 1017.70 1017.88 1018.04 1018.09 1018.14 1018.11 1018.15 1018.31 1018.32 1018.25 1018.69 1019.08 1018.95 1018.78 1018.62 1018.23 1018.46 1018.67 1018.72 1018.96
1013.87 1014.64 1015.33 1015.75 1015.97 1016.20 1016.46 1016.68 1016.90 1016.96 1016.94 1016.98 1017.06 1017.14 1017.33 1017.46 1017.40 1017.39 1017.44 1017.53 1017.46 1017.33 1017.34 1017.47 1017.54 1017.72 1018.03 1018.20 1018.07 1018.05 1018.01 1017.97 1017.83 1018.12 1018.13 1018.27 1018.31 1018.34 1018.15 1018.21 1018.26 1018.38 1018.53
1013.91 1014.47 1014.91 1015.50 1015.76 1016.07 1016.35 1016.53 1016.76 1016.83 1016.80 1016.78 1016.85 1016.96 1017.17 1017.18 1017.18 1017.11 1017.10 1017.09 1017.13 1017.17 1017.13 1017.27 1017.22 1017.35 1017.53 1017.94 1017.97 1017.71 1017.76 1017.79 1017.73 1017.68 1017.53 1017.61 1017.57 1017.84 1017.91 1017.92 1017.94 1018.08 1018.31
1013.84 1014.31 1014.68 1015.01 1015.48 1015.75 1016.00 1016.23 1016.44 1016.55 1016.56 1016.50 1016.53 1016.71 1017.01 1016.97 1016.88 1016.78 1016.76 1016.71 1016.79 1016.78 1016.88 1017.02 1016.97 1016.86 1016.72 1016.92 1017.13 1017.14 1017.15 1017.30 1017.47 1017.46 1017.37 1017.04 1017.08 1017.32 1017.51 1017.74 1017.94 1017.92 1017.99
1013.44 1014.03 1014.30 1014.61 1015.06 1015.34 1015.37 1015.68 1015.94 1016.09 1016.16 1016.19 1016.28 1016.51 1016.76 1016.68 1016.49 1016.34 1016.43 1016.25 1016.29 1016.34 1016.65 1016.87 1016.59 1016.43 1016.66 1016.51 1016.59 1016.55 1016.36 1016.85 1017.04 1017.09 1016.95 1016.84 1016.96 1017.20 1017.44 1017.67 1017.87 1017.80 1017.79
1012.30 1013.09 1013.64 1014.03 1014.21 1014.54 1014.72 1015.19 1015.52 1015.62 1015.75 1015.91 1015.95 1016.12 1016.22 1016.17 1016.21 1016.06 1016.08 1015.88 1016.03 1016.07 1016.43 1016.49 1016.34 1016.52 1016.25 1016.43 1016.76 1016.60 1016.28 1016.45 1016.82 1016.80 1016.46 1016.54 1016.93 1017.19 1017.44 1017.71 1017.81 1017.80 1017.65
1011.71 1012.15 1012.77 1013.15 1013.57 1013.81 1014.11 1014.50 1014.65 1014.97 1015.18 1015.45 1015.50 1015.66 1015.87 1015.82 1015.66 1015.77 1015.76 1015.49 1015.77 1015.89 1016.15 1015.92 1016.10 1016.29 1016.31 1016.48 1016.35 1016.28 1016.21 1016.58 1016.69 1016.66 1016.39 1016.44 1016.79 1016.95 1017.25 1017.46 1017.74 1017.75 1017.56
1010.80 1011.32 1011.94 1012.48 1012.95 1013.11 1013.57 1013.82 1014.09 1014.23 1014.40 1014.57 1014.97 1015.06 1015.24 1015.49 1015.51 1015.32 1015.51 1015.42 1015.16 1015.68 1015.64 1015.35 1015.65 1016.14 1016.56 1016.05 1016.04 1016.08 1015.84 1016.48 1016.48 1016.42 1016.51 1016.55 1016.74 1016.65 1016.93 1017.19 1017.46 1017.71 1017.69
1010.28 1010.80 1011.24 1011.91 1012.32 1012.36 1013.35 1013.58 1013.57 1013.43 1013.69 1014.09 1014.38 1014.54 1014.77 1015.11 1015.32 1015.40 1015.24 1014.96 1014.79 1014.86 1015.11 1015.13 1015.36 1016.23 1016.35 1015.65 1015.83 1015.61 1015.32 1016.07 1016.59 1017.10 1016.69 1016.90 1016.92 1016.74 1016.85 1017.01 1017.39 1017.55 1017.55
1009.64 1010.08 1010.96 1011.50 1011.90 1012.28 1012.81 1013.13 1013.10 1013.26 1013.33 1013.68 1014.05 1014.34 1014.50 1014.67 1014.78 1014.85 1015.06 1014.93 1014.58 1014.47 1014.35 1014.66 1015.45 1015.70 1016.25 1016.08 1015.10 1014.84 1015.73 1015.67 1016.04 1017.20 1017.53 1017.09 1016.57 1016.42 1016.78 1017.17 1017.31 1017.44 1017.39
1009.06 1009.64 1010.36 1011.02 1011.59 1012.10 1012.68 1013.05 1013.08 1013.17 1013.32 1013.60 1013.40 1013.65 1013.82 1014.11 1014.38 1014.62 1015.00 1014.90 1014.47 1014.32 1014.50 1014.83 1015.05 1014.92 1014.97 1015.74 1016.19 1017.35 1018.05 1017.18 1017.49 1017.48 1017.53 1017.28 1016.51 1016.16 1016.49 1016.81 1017.02 1017.18 1017.22
1008.58 1009.29 1010.15 1010.65 1011.36 1011.82 1012.29 1012.71 1013.00 1013.14 1013.34 1013.33 1013.29 1013.46 1013.59 1013.67 1013.83 1014.23 1014.36 1014.31 1014.21 1014.55 1014.72 1015.08 1015.02 1015.13 1014.92 1016.42 1016.42 1016.80 1018.01 1017.65 1016.65 1016.63 1017.76 1017.37 1017.04 1016.03 1016.25 1016.49 1016.64 1016.92 1017.04
1008.19 1008.76 1009.38 1010.21 1010.92 1011.60 1012.20 1012.59 1013.01 1013.25 1013.21 1013.02 1012.94 1013.04 1013.03 1013.24 1013.56 1013.94 1014.18 1014.17 1014.51 1014.77 1015.13 1015.20 1015.28 1015.38 1015.03 1016.38 1015.90 1016.20 1017.26 1016.81 1017.11 1016.41 1017.18 1017.47 1017.05 1016.54 1015.62 1016.18 1016.42 1016.52 1016.66
1007.79 1008.55 1009.14 1009.89 1010.63 1011.33 1012.02 1012.51 1012.87 1013.08 1013.08 1012.89 1012.56 1012.44 1012.65 1012.92 1013.27 1013.76 1013.89 1014.10 1014.27 1014.68 1014.88 1015.31 1014.94 1015.03 1015.03 1015.88 1016.65 1017.03 1017.14 1017.25 1016.48 1016.11 1016.19 1016.59 1016.99 1016.52 1016.36 1015.67 1016.02 1016.12 1016.42
1007.31 1008.09 1008.79 1009.49 1010.24 1010.84 1011.35 1011.88 1012.17 1012.48 1012.45 1012.41 1012.22 1012.24 1012.34 1012.59 1012.86 1013.33 1013.67 1013.94 1014.16 1014.44 1014.62 1015.25 1014.72 1014.60 1014.63 1015.40 1016.04 1016.85 1017.28 1017.75 1017.97 1016.76 1017.08 1016.78 1015.86 1015.57 1016.04 1016.44 1015.62 1015.83 1016.38
1006.58 1007.50 1008.28 1008.98 1009.72 1010.33 1010.83 1011.45 1011.78 1012.01 1012.16 1012.19 1012.21 1012.21 1012.17 1012.27 1012.41 1012.67 1012.99 1013.45 1013.88 1014.42 1014.63 1014.63 1014.04 1014.38 1014.67 1014.79 1015.12 1015.72 1016.79 1017.28 1017.55 1017.17 1017.07 1015.57 1014.55 1015.10 1015.58 1015.37 1014.86 1015.32 1016.23
1005.54 1006.65 1007.48 1008.31 1009.10 1009.77 1010.29 1010.98 1011.55 1011.73 1011.97 1011.80 1011.82 1011.63 1011.67 1011.70 1011.97 1012.23 1012.51 1012.81 1013.47 1013.76 1014.33 1014.34 1013.71 1013.80 1014.10 1014.56 1014.69 1015.03 1015.34 1015.61 1016.67 1017.42 1016.49 1016.21 1016.45 1016.11 1015.29 1014.54 1014.46 1014.76 1015.51
1004.77 1005.69 1006.70 1007.61 1008.46 1009.10 1009.84 1010.28 1010.86 1011.26 1011.33 1011.18 1011.38 1011.36 1011.31 1011.58 1011.64 1011.83 1011.99 1012.47 1012.95 1013.35 1013.56 1013.88 1013.95 1013.81 1013.94 1013.92 1014.00 1014.75 1015.60 1016.40 1016.18 1016.84 1017.29 1016.82 1015.66 1014.80 1014.16 1013.71 1013.88 1014.67 1015.15
1004.12 1005.07 1006.06 1007.00 1007.76 1008.39 1009.16 1009.75 1010.31 1010.58 1010.79 1011.01 1011.16 1011.30 1011.20 1011.22 1011.37 1011.60 1011.67 1012.17 1012.43 1012.81 1013.28 1013.69 1013.73 1013.95 1013.95 1013.64 1013.53 1014.01 1014.90 1015.48 1016.23 1016.86 1016.57 1015.92 1015.38 1014.89 1014.68 1015.10 1015.77 1016.66 1016.99
Wind_Speed
10 11 15 15 14 15 16 15 14 14 13 12 11 12 12 12 12 12 11 10 10 8 8 7 5 6 7 8 6 7 7 7 7 7 8 8 7 7 7 7 6 10 12
16 13 16 14 16 15 16 14 13 12 12 12 11 12 11 11 12 11 10 9 9 8 7 7 6 6 6 6 6 6 6 5 6 6 8 6 6 5 4 4 9 10 11
18 15 14 15 15 15 14 13 12 12 12 12 12 12 12 11 11 10 10 10 9 8 6 5 5 4 5 5 4 5 4 5 5 9 11 3 3 6 4 9 13 11 10
18 15 14 16 15 15 13 12 12 13 12 12 12 12 11 11 11 10 9 8 7 6 4 3 2 1 1 2 1 1 1 3 4 9 1 2 2 2 6 9 12 12 12
17 14 14 18 16 15 13 12 12 13 12 12 12 11 10 9 8 7 6 5 4 4 4 3 3 3 3 4 4 4 4 2 2 6 3 1 2 3 8 9 11 11 13
17 14 16 18 18 15 13 12 14 13 12 11 10 10 9 7 6 6 5 6 6 6 6 6 6 7 7 7 7 7 7 7 3 5 4 6 6 12 12 11 12 13 10
17 15 14 16 16 16 14 14 13 12 11 10 10 9 8 8 7 7 7 7 8 8 9 9 9 9 9 9 10 10 9 10 4 7 9 10 13 20 14 13 12 13 13
20 16 14 17 15 14 15 14 14 13 12 11 11 10 10 9 8 9 8 9 9 10 11 11 11 11 10 10 10 11 11 11 9 7 10 10 14 19 14 15 12 14 13
19 17 13 12 13 15 13 13 13 12 12 12 12 11 10 9 10 10 11 11 12 13 13 12 13 13 12 12 11 12 13 14 8 3 8 8 12 16 16 17 14 14 14
18 15 14 11 9 7 7 13 13 13 13 13 13 13 12 11 12 13 13 13 15 15 15 13 14 14 13 13 13 13 15 15 9 7 5 7 17 19 17 16 15 14 14
15 16 13 14 10 9 9 10 13 15 15 16 14 15 10 5 7 11 11 15 15 17 13 13 14 13 12 12 14 15 16 6 6 5 4 13 17 18 16 15 14 14 13
19 17 15 14 13 11 10 11 9 9 7 7 7 6 5 7 7 10 13 15 15 12 9 5 10 11 8 4 4 10 7 7 7 7 3 11 15 16 15 14 14 13 13
21 16 18 16 16 15 11 7 6 6 6 6 9 8 7 6 6 5 3 4 4 8 3 2 2 1 4 4 4 6 8 6 4 5 7 14 14 14 15 14 13 10 12
18 20 20 19 16 15 9 9 9 7 7 6 8 8 5 3 4 4 3 5 4 4 5 4 2 4 5 5 8 9 7 2 5 4 7 16 15 15 15 13 11 10 11
8 15 20 18 15 10 12 9 6 8 9 10 7 6 5 4 4 2 4 4 4 5 6 6 3 4 4 9 9 12 6 5 3 4 3 14 15 15 13 13 11 10 10
13 9 9 18 12 8 6 5 3 2 3 6 7 7 7 4 3 3 4 4 4 3 5 5 6 5 5 10 9 9 3 4 5 6 2 7 15 12 11 12 11 10 10
15 12 14 13 9 8 7 4 2 2 1 4 6 8 8 7 6 4 3 4 4 4 5 4 3 6 6 5 3 5 4 8 8 14 5 5 6 11 10 9 10 10 10
16 13 17 13 11 8 7 4 3 4 3 4 4 5 10 7 7 5 4 4 5 4 2 4 2 2 2 2 4 8 7 5 8 6 1 4 4 5 8 10 10 9 8
15 13 16 15 14 11 8 5 5 6 4 5 4 5 7 7 7 4 4 4 6 3 3 3 0 3 2 3 7 8 2 5 8 5 9 9 7 5 4 10 11 10 11
14 12 10 11 15 13 8 6 4 4 5 5 5 4 10 6 7 5 2 4 3 4 2 2 2 4 3 4 4 7 4 7 4 3 5 6 7 6 8 8 7 7 13
14 12 10 10 14 11 7 7 3 5 4 4 4 3 7 6 6 6 3 3 4 5 5 4 0 3 3 5 4 4 3 3 6 3 2 5 7 3 6 8 6 4 6
15 15 11 10 12 11 9 6 4 4 4 4 4 4 7 8 8 6 6 5 3 3 3 3 4 2 3 4 3 3 2 1 2 6 7 9 7 2 4 7 9 7 6
17 17 14 11 11 9 9 6 3 3 3 2 3 3 6 7 8 7 6 5 5 5 3 5 5 4 1 1 4 5 2 4 1 2 9 5 3 3 7 11 10 8 7
19 18 17 14 13 9 9 7 7 7 6 4 4 4 5 8 7 7 7 7 7 5 5 6 3 3 0 3 1 3 0 6 4 2 4 3 1 7 11 7 7 10 9
20 19 18 16 14 12 10 8 8 7 5 4 3 5 5 6 7 7 7 7 6 6 6 7 2 4 3 2 3 3 3 1 1 4 4 3 5 7 9 8 8 8 8
18 19 18 18 16 15 13 12 10 9 9 4 4 3 4 4 7 7 6 6 7 6 7 5 6 5 6 4 3 2 4 3 2 2 2 2 3 5 5 11 11 10 10
Wind_Direction
150 148 145 140 134 129 124 120 115 108 106 101 100 100 103 105 107 107 104 106 102 107 106 105 102 99 96 84 79 78 76 79 87 91 95 100 95 100 112 116 130 120 121
144 148 148 141 136 132 128 128 127 118 113 110 105 109 116 118 118 121 117 117 121 121 118 117 112 112 105 98 95 93 96 86 72 75 61 76 107 106 120 111 122 132 130
143 147 149 141 136 135 135 132 133 122 121 116 118 118 121 124 127 128 128 127 132 132 133 126 117 110 100 95 96 100 106 104 99 93 75 71 338 144 141 113 125 135 142
140 149 148 145 141 142 143 141 134 129 124 126 127 130 133 137 140 139 138 138 141 143 142 136 121 117 108 110 113 113 167 132 117 113 22 126 137 144 175 142 139 148 152
146 145 149 145 145 149 150 147 141 134 133 137 140 144 146 144 146 146 147 148 161 175 191 205 220 237 249 233 223 231 250 231 158 108 272 209 326 209 215 167 150 171 166
146 138 152 149 149 155 157 143 140 138 143 146 150 152 156 159 167 171 181 192 206 221 225 223 229 231 235 240 238 230 246 251 195 110 83 303 264 261 201 181 173 185 192
138 141 149 151 155 160 155 149 146 148 155 163 168 171 175 186 198 209 215 220 225 231 237 237 232 233 232 236 242 243 234 244 218 148 165 209 228 243 203 188 191 179 177
139 144 151 157 161 161 160 158 159 163 170 179 186 191 196 204 214 226 229 231 234 239 243 246 246 244 239 237 240 245 244 243 242 199 191 215 216 210 192 192 191 175 184
140 147 151 157 163 163 168 170 172 177 184 194 201 207 211 218 224 231 234 238 238 238 239 243 249 251 248 241 238 245 245 247 244 236 176 191 214 208 195 191 184 184 184
144 148 153 155 161 164 175 182 186 190 197 206 212 218 220 226 231 235 237 238 241 241 235 239 246 251 250 251 244 239 247 249 250 241 253 202 191 207 199 195 191 191 193
150 153 160 160 170 179 179 191 195 201 207 214 221 225 226 232 231 237 237 237 241 241 242 237 243 241 237 242 241 239 238 231 243 241 239 219 191 196 200 197 199 193 197
158 164 165 168 177 188 187 186 195 205 209 212 220 213 220 222 232 231 229 238 245 235 241 262 272 253 236 230 240 250 231 221 236 243 206 188 184 195 198 196 202 201 203
168 167 173 176 184 187 197 182 195 205 204 214 220 210 216 224 223 238 240 228 198 220 192 225 234 50 183 222 241 259 238 210 237 258 191 176 190 198 199 200 202 206 214
169 174 177 178 185 189 191 182 197 197 197 207 214 218 202 225 225 199 212 220 202 156 197 224 228 177 267 265 222 243 228 183 245 244 177 179 189 195 196 196 203 214 212
178 165 179 176 184 173 173 193 200 202 198 200 187 202 192 214 229 233 216 214 229 151 207 215 173 212 229 254 269 249 235 203 237 152 163 183 190 184 185 189 202 218 218
178 178 151 167 170 145 161 178 193 171 205 151 180 199 201 188 219 202 259 279 260 227 196 217 204 188 210 207 243 240 182 185 78 350 17 196 192 177 187 189 199 206 206
175 176 151 158 154 144 149 181 172 270 238 200 183 197 200 199 198 198 240 279 266 244 267 182 170 177 170 271 260 212 102 110 85 285 223 219 173 172 186 196 198 204 204
171 167 157 162 163 154 156 167 213 253 267 247 206 178 190 186 190 197 223 251 247 270 343 76 350 280 326 25 326 61 27 31 49 269 280 271 181 176 185 198 193 191 187
168 167 162 165 169 170 167 167 203 236 249 245 248 196 202 184 193 199 207 254 248 26 91 123 329 215 242 95 108 59 47 18 37 32 41 312 256 174 170 201 185 190 195
172 168 165 152 166 168 172 172 194 233 258 243 241 196 198 179 177 200 203 281 95 101 55 92 260 273 123 98 89 143 260 71 10 180 90 345 327 249 176 190 183 197 198
159 162 159 153 167 164 167 180 183 211 235 255 244 225 175 175 177 177 177 175 152 142 186 293 21 316 359 140 91 56 346 134 130 6 322 294 254 4 276 189 177 185 204
162 169 163 158 157 170 172 179 175 190 220 216 232 195 187 173 180 176 169 175 195 173 214 183 215 200 221 135 126 85 171 106 285 163 214 224 217 205 287 241 184 191 195
164 171 171 164 160 167 160 172 200 214 257 224 235 203 203 182 181 188 181 204 177 183 203 232 232 136 261 121 168 142 114 219 177 244 232 264 315 344 293 221 200 181 196
173 169 170 167 166 172 173 169 188 214 214 211 207 207 191 195 192 191 193 199 186 186 174 220 242 185 337 213 165 98 132 155 153 325 314 304 212 261 261 211 193 195 195
168 169 172 172 171 177 187 178 199 212 210 219 229 217 209 204 199 202 205 199 204 159 190 203 285 272 233 225 181 148 139 205 131 119 238 292 229 222 238 195 190 193 189
168 170 172 175 179 180 187 201 205 204 216 213 230 244 239 178 199 214 207 206 205 144 161 187 212 234 279 268 278 185 159 176 97 294 219 251 248 340 354 58 58 39 20